Regional Weather Roundup
Issued by NWS Huntsville, AL

Home | Current Version | Previous Version | Text Only | Print | Product List | Glossary On
Versions: 1 2 3 4 5 6 7 8 9 10 11 12 13 14 15 16 17 18 19 20 21 22 23 24 25 26 27 28 29 30 31 32 33 34 35 36 37 38 39 40 41 42 43 44 45 46 47 48 49 50
000
ASUS44 KHUN 200010
RWRHUN

WEATHER ROUNDUP FOR THE TENNESSEE VALLEY
NATIONAL WEATHER SERVICE HUNTSVILLE AL
600 PM CST THU JAN 19 2017

ALZ001>004-200100-
NORTHWEST ALABAMA

CITY           SKY/WX    TMP DP  RH WIND       PRES   REMARKS
COURTLAND HCN    N/A     61 N/A N/A E3          N/A
RUSSELLVILLE     N/A     61 N/A N/A MISG        N/A
SHOALS AIRPORT LGT RAIN  60  57  89 NE10      29.76F
6HR MIN TEMP:  60; 6HR MAX TEMP:  65; 6HR PCP:  0.62;

SHOALS TVA RES   N/A     59 N/A N/A MISG        N/A
$$

ALZ005>007-016-200100-
NORTH CENTRAL ALABAMA

CITY           SKY/WX    TMP DP  RH WIND       PRES   REMARKS
CULLMAN AG STN   N/A     61 N/A N/A SE5         N/A
DECATUR AP     LGT RAIN  62  62 100 SE9       29.77F
6HR MIN TEMP:  61; 6HR MAX TEMP:  64; 6HR PCP:  1.16;

HUNTSVILLE AP  LGT RAIN  63  62  97 SE12      29.78F
6HR MIN TEMP:  62; 6HR MAX TEMP:  66; 6HR PCP:  0.83;

MERIDIANVILLE  LGT RAIN  59  59 100 SE8       29.79F
REDSTONE ARSN  LGT RAIN  61  61  98 S8        29.77F
VINEMONT AP    LGT RAIN  61  60  97 SE3       29.80F
$$

ALZ008>010-200100-
NORTHEAST ALABAMA

CITY           SKY/WX    TMP DP  RH WIND       PRES   REMARKS
ALBERTVILLE    RAIN      61  61 100 S6        29.82R
FORT PAYNE     RAIN      61  54  77 SE3       29.81S
SCOTTSBORO AP  RAIN      59  59 100 S7        29.83F
SCOTTSBORO HCN   N/A     57 N/A N/A MISG        N/A
VALLEY HEAD      N/A     63 N/A N/A MISG        N/A
$$

TNZ076-096-097-200100-
SOUTHEASTERN MIDDLE TENNESSEE

CITY           SKY/WX    TMP DP  RH WIND       PRES   REMARKS
TULLAHOMA      CLOUDY    57  57 100 SE7       29.81F
WINCHESTER     CLOUDY    59  57  94 SE8       29.81F
$$

...SURROUNDING SITES...

CITY           SKY/WX    TMP DP  RH WIND       PRES   REMARKS
ATLANTA        CLOUDY    69  56  62 SE7       29.89R
ANNISTON       CLOUDY    69  61  75 SE6       29.83R
BIRMINGHAM     RAIN      63  62  97 SE5       29.84S
CHATTANOOGA    CLOUDY    56  48  74 N6        29.86S
CORINTH        LGT RAIN  61  59  94 CALM      29.75S
DALTON         MOCLDY    63  46  55 SE8       29.86S
GADSDEN        RAIN      59  59 100 NW3       29.83R
GOLDEN TRNGL   LGT RAIN  63  57  82 S9        29.72F FOG
HALEYVILLE     LGT RAIN  61  61 100 S8        29.78F
JACKSON TN     CLOUDY    61  60  97 S6        29.73F
MEMPHIS        LGT RAIN  61  60  97 SE9       29.72F
NASHVILLE      LGT RAIN  59  58  96 SE6       29.78F FOG
OXFORD MS      LGT RAIN  55  55 100 SW3       29.78F
ROME           CLOUDY    64  45  49 E3        29.85R
SAVANNAH       CLOUDY    61  59  94 CALM      29.74F
TUPELO         LGT RAIN  62  59  90 SW7       29.76R FOG
TUSCALOOSA     LGT RAIN  64  63  96 S8        29.81R
$$

...GULF COAST WEATHER...

CITY           SKY/WX    TMP DP  RH WIND       PRES   REMARKS
GULFPORT       CLOUDY    66  65  96 CALM      29.83S
PASCAGOULA     HVY RAIN  67  63  87 SE12      29.83F FOG
MOBILE         HVY RAIN  65  62  90 SW16G26   29.86R VSB 1
GULF SHORES    CLOUDY    69  69 100 S8        29.85F
PENSACOLA      CLOUDY    71  67  87 S9        29.85S
DESTIN         CLOUDY    74  70  87 VRB7      29.88S
PANAMA CITY    DRIZZLE   70  67  89 SE10      29.91
APPALACHICOLA  PTCLDY    68  68 100 SE9       29.92S
$$




USA.gov is the U.S. government's official web portal to all federal, state and local government web resources and services.